Regional Weather Roundup
Issued by NWS Portland, ME

Current Version | Previous Version | Text Only | Print | Product List | Glossary Off
Versions: 1 2 3 4 5 6 7 8 9 10 11 12 13 14 15 16 17 18 19 20 21 22 23 24 25 26 27 28 29 30 31 32 33 34 35 36 37 38 39 40 41 42 43 44 45 46 47 48 49 50
000 ASUS41 KGYX 281105 RWRGYX WEATHER ROUNDUP FOR MAINE AND NEW HAMPSHIRE NATIONAL WEATHER SERVICE GRAY ME 700 AM EDT FRI JUL 28 2017 MEZ002-005-006-010-012-015-018-020-021-024-026-027-029-281200- MAINE CITY SKY/WX TMP DP RH WIND PRES REMARKS PORTLAND MOSUNNY 66 62 87 W5 29.82R SANFORD N/A 67 63 87 W7 29.83S WISCASSET SUNNY 64 61 90 CALM 29.82R ROCKLAND SUNNY 62 62 100 W7 29.80S FRYEBURG SUNNY 60 60 100 CALM 29.84R LEWISTONAUBURN SUNNY 63 61 93 NE5 29.82S AUGUSTA SUNNY 65 61 87 W8 29.82R WATERVILLE SUNNY 64 63 96 VRB5 29.79R BANGOR FOG 62 61 96 W3 29.79S VSB 1/4 GREENVILLE N/A N/A N/A N/A NW9 29.81R MILLINOCKET PTSUNNY 65 32 29 NW7 29.79R HOULTON CLOUDY 65 62 90 NW7 29.75R PRESQUE ISLE CLOUDY 61 54 77 NW6 29.79R FRENCHVILLE MOSUNNY 57 50 77 NW13G21 29.78R CARIBOU CLOUDY 60 53 77 NW8 29.78R $$ NHZ002-005-008-009-011-012-014-281200- NEW HAMPSHIRE CITY SKY/WX TMP DP RH WIND PRES REMARKS PORTSMOUTH MOSUNNY 67 62 85 W7 29.82R ROCHESTER MOSUNNY 67 60 78 VRB5 29.83R NASHUA SUNNY 63 61 93 CALM 29.86R MANCHESTER MOSUNNY 66 59 78 W5 29.84S CONCORD PTSUNNY 62 60 93 CALM 29.86R LACONIA N/A 66 61 84 W3 29.86R PLYMOUTH FAIR 64 60 89 CALM 29.86R BERLIN PTSUNNY 62 56 80 N3 29.87R WHITEFIELD MOSUNNY 63 59 87 NW5 29.89R JAFFREY FOG 62 62 100 SW3 29.89S VSB 3/4 KEENE CLOUDY 63 63 100 CALM 29.89R FOG LEBANON FOG 62 61 96 CALM 29.88R VSB 1/4 MT WASHINGTON FOG 45 45 100 NW38G49 N/A VSB 0 $$ VTZ005-007-008-281200- VERMONT CITY SKY/WX TMP DP RH WIND PRES REMARKS ST JOHNSBURY N/A 61 57 87 MISG 29.88R MONTPELIER PTSUNNY 60 60 100 NW3 29.94R BURLINGTON MOSUNNY 63 53 70 NE3 29.92R $$ MAZ007-012-024-CTZ003-RIZ002-NYZ038-NYZ072-281200- SOUTHERN NEW ENGLAND AND NY CITY SKY/WX TMP DP RH WIND PRES REMARKS BOSTON MOSUNNY 69 65 86 W8 29.84S WORCESTER PTSUNNY 63 61 93 W8 29.88S FOG NANTUCKET PTSUNNY 68 67 96 SW12 29.86S PROVIDENCE MOSUNNY 70 69 97 CALM 29.86S HARTFORD FOG 64 63 96 CALM 29.87R VSB 1/4 ALBANY MOSUNNY 63 62 97 CALM 29.90R NEW YORK CITY MOSUNNY 72 71 97 NE8 29.85S $$ ANZ081-ANZ082-ANZ150-NHZ014-MEZ023>029-281200- COASTAL MARINE OBSERVATIONS STATION/POSITION TIME TEMP WIND PRES WAVE AIR SEA DIR/SP/G HT/PER (UTC) (F) (DEG/KT/KT) (MB) (FT/S) MOUNT DESERT ROC 1100 53 1008.8R MATINICUS ROCK 1000 56 260/ 12/ 13 1008.3R ISLE OF SHOALS 1000 65 270/ 9/ 10 1009.4R JEFFREYS LEDGE 1006 61 N/A 2/ 8 CASHES LEDGE BUO 0950 64 63 1009.2 3/ 5 GEORGES BANK BUO 0950 64 63 1011.3 3/ 8 $$ .............KEY.............. WCI - WIND CHILL TC - TEMPERATURE IN CELSIUS VSB - VISIBILITY IN MILES HX - HEAT INDEX FAIR- INDICATES FEW OR NO CLOUDS BELOW 12,000 FT, WITH NO SIGNIFICANT WEATHER AND/OR OBSTRUCTIONS TO VISIBILITY.

USA.gov is the U.S. government's official web portal to all federal, state and local government web resources and services.